Weather History for LEAL - December, 2013

Change the Weather History Date:

Thursday, December 19, 2013

  Actual Average Record
Temperature  
Mean Temperature 54 °F -  
Max Temperature 61 °F 59 °F 68 °F (1996)
Min Temperature 48 °F 43 °F 33 °F (2000)
Degree Days  
Heating Degree Days 10    
Growing Degree Days 4 (Base 50)    
Moisture  
Dew Point 49 °F    
Average Humidity 77    
Maximum Humidity 100    
Minimum Humidity 46    
Precipitation  
Precipitation 0.20 in - - ()
Sea Level Pressure  
Sea Level Pressure 30.06 in    
Wind  
Wind Speed 4 mph ()    
Max Wind Speed 8 mph    
Max Gust Speed -    
Visibility 5.3 miles    
Events Rain    
Averages and records for this station are not official NWS values.
T = Trace of Precipitation, MM = Missing Value Source: Averaged Metar Reports

Daily Weather History Graph

Daily Weather History Graph

Search for Another Location

Airport or City:

Trip Planner

Search our weather history database for the weather conditions in past years. The results will help you decide how hot, cold, wet, or windy it might be!

Date:

Astronomy

Dec. 19, 2013 Rise Set
Actual Time 8:14 AM CET 5:44 PM CET
Civil Twilight 7:44 AM CET 6:14 PM CET
Nautical Twilight 7:11 AM CET 6:47 PM CET
Astronomical Twilight 6:39 AM CET 7:19 PM CET
Moon 7:55 PM CET (12/19) 9:25 AM CET (12/19)
Length of Visible Light 10h 29m
Length of Day
9h 30m
Waning Gibbous, 96% of the Moon is Illuminated
Dec 19
Waning Gibbous
Dec 25
Last Quarter
Jan 1
New
Jan 8
First Quarter
Jan 16
Full

Hourly Weather History & Observations

Time (CET) Temp. Dew Point Humidity Pressure Visibility Wind Dir Wind Speed Gust Speed Precip Events Conditions
12:00 AM 50 °F 45 °F 77% 30.24 in - WNW 3.5 mph - -  
12:00 AM 51.8 °F 46.4 °F 82% 30.24 in - Variable 2.3 mph - N/A   Clear
12:30 AM 53.6 °F 48.2 °F 82% 30.21 in - West 3.5 mph - N/A   Clear
1:00 AM 51 °F 45 °F 74% 30.23 in 9 mi West 5.8 mph - -   Clear
1:00 AM 53.6 °F 48.2 °F 82% 30.21 in - West 4.6 mph - N/A   Clear
1:30 AM 51.8 °F 46.4 °F 82% 30.21 in - SW 3.5 mph - N/A   Clear
2:00 AM 49 °F 43 °F 73% 30.21 in - West 2.3 mph - -  
2:00 AM 50.0 °F 44.6 °F 82% 30.18 in - Variable 2.3 mph - N/A   Clear
2:30 AM 51.8 °F 44.6 °F 76% 30.18 in - West 3.5 mph - N/A   Clear
3:00 AM 52 °F 44 °F 66% 30.21 in - West 6.9 mph - -  
3:00 AM 55.4 °F 46.4 °F 72% 30.18 in - West 5.8 mph - N/A   Clear
3:30 AM 55.4 °F 46.4 °F 72% 30.18 in - West 6.9 mph - N/A   Clear
4:00 AM 52 °F 45 °F 69% 30.19 in 9 mi South 5.8 mph - -   Scattered Clouds
4:00 AM 53.6 °F 46.4 °F 77% 30.18 in - South 5.8 mph - N/A   Clear
4:30 AM 53.6 °F 46.4 °F 77% 30.18 in - Variable 1.2 mph - N/A   Clear
5:00 AM 52 °F 45 °F 70% 30.18 in - SW 4.6 mph - -  
5:00 AM 53.6 °F 46.4 °F 77% 30.15 in - SW 3.5 mph - N/A   Clear
5:30 AM 53.6 °F 46.4 °F 77% 30.15 in - SW 4.6 mph - N/A   Clear
6:00 AM 53 °F 45 °F 65% 30.15 in - SW 4.6 mph - -  
6:00 AM 55.4 °F 46.4 °F 72% 30.12 in - SSW 4.6 mph - N/A   Clear
6:30 AM 55.4 °F 46.4 °F 72% 30.12 in - SW 3.5 mph - N/A   Clear
7:00 AM 55 °F 45 °F 59% 30.14 in 9 mi WSW 6.9 mph - -   Scattered Clouds
7:00 AM 57.2 °F 46.4 °F 67% 30.12 in 6.2 mi WSW 6.9 mph - N/A   Partly Cloudy
7:30 AM 57.2 °F 46.4 °F 67% 30.12 in 6.2 mi WSW 6.9 mph - N/A   Partly Cloudy
8:00 AM 55 °F 45 °F 61% 30.16 in 9 mi WSW 6.9 mph - -   Partly Cloudy
8:00 AM 57.2 °F 46.4 °F 67% 30.15 in 6.2 mi WSW 6.9 mph - N/A   Scattered Clouds
8:30 AM 57.2 °F 48.2 °F 72% 30.12 in 6.2 mi West 3.5 mph - N/A   Partly Cloudy
9:00 AM 56 °F 47 °F 64% 30.14 in - SW 3.5 mph - -   Unknown Precipitation
9:00 AM 57.2 °F 48.2 °F 72% 30.12 in 6.2 mi Variable 2.3 mph - N/A Rain Light Rain
9:30 AM 55.4 °F 50.0 °F 82% 30.12 in 6.2 mi Variable 2.3 mph - N/A   Partly Cloudy
10:00 AM 56 °F 48 °F 67% 30.14 in 9 mi South 4.6 mph - -   Mostly Cloudy
10:00 AM 57.2 °F 50.0 °F 77% 30.12 in - SSW 4.6 mph - N/A   Clear
10:30 AM 59.0 °F 50.0 °F 72% 30.12 in - SSW 3.5 mph - N/A   Clear
11:00 AM 59 °F 48 °F 58% 30.14 in - SSW 3.5 mph - -  
11:00 AM 60.8 °F 50.0 °F 68% 30.12 in - SSW 3.5 mph - N/A   Clear
11:30 AM 62.6 °F 48.2 °F 59% 30.09 in - SSW 5.8 mph - N/A   Clear
12:00 PM 60 °F 46 °F 50% 30.11 in - SW 6.9 mph - -  
12:00 PM 60.8 °F 48.2 °F 63% 30.09 in - SSW 5.8 mph - N/A   Clear
12:30 PM 62.6 °F 48.2 °F 59% 30.06 in - SW 4.6 mph - N/A   Clear
1:00 PM 61 °F 46 °F 46% 30.06 in - SSW 4.6 mph - -  
1:00 PM 62.6 °F 48.2 °F 59% 30.06 in - SSW 4.6 mph - N/A   Clear
1:30 PM 62.6 °F 48.2 °F 59% 30.04 in - SSW 4.6 mph - N/A   Clear
2:00 PM 62 °F 47 °F 46% 30.01 in - SSW 8.1 mph - -  
2:00 PM 64.4 °F 48.2 °F 56% 30.01 in - SSW 8.1 mph - N/A   Clear
2:30 PM 62.6 °F 50.0 °F 63% 29.98 in - SSW 5.8 mph - N/A   Clear
3:00 PM 61 °F 49 °F 56% 29.98 in - SSW 2.3 mph - -  
3:00 PM 62.6 °F 50.0 °F 63% 29.98 in 6.2 mi SSW 3.5 mph - N/A   Partly Cloudy
3:30 PM 60.8 °F 53.6 °F 77% 29.98 in 4.3 mi Variable 2.3 mph - N/A Rain Light Rain
4:00 PM 58 °F 53 °F 80% 29.99 in - WNW 2.3 mph - -   Unknown Precipitation
4:00 PM 59.0 °F 55.4 °F 88% 29.98 in 4.3 mi Variable 1.2 mph - N/A Rain Light Rain
4:30 PM 59.0 °F 53.6 °F 82% 29.98 in 4.3 mi Variable 2.3 mph - N/A Rain Rain
5:00 PM 56 °F 53 °F 86% 29.96 in - Calm Calm - -   Unknown Precipitation
5:00 PM 57.2 °F 55.4 °F 94% 29.95 in 4.3 mi Calm Calm - N/A Rain Light Rain
5:30 PM 57.2 °F 55.4 °F 94% 29.92 in 4.3 mi Variable 2.3 mph - N/A Rain Rain
6:00 PM 55 °F 52 °F 88% 29.92 in - Calm Calm - -   Unknown Precipitation
6:00 PM 55.4 °F 55.4 °F 100% 29.92 in 4.3 mi Calm Calm - N/A Rain Rain
6:30 PM 55.4 °F 55.4 °F 100% 29.92 in 4.3 mi Variable 1.2 mph - N/A Rain Rain
7:00 PM 54 °F 52 °F 92% 29.91 in 7 mi Calm Calm - - Rain Light Rain
7:00 PM 55.4 °F 55.4 °F 100% 29.89 in 4.3 mi Calm Calm - N/A Rain Rain
7:30 PM 55.4 °F 55.4 °F 100% 29.89 in 4.3 mi Variable 1.2 mph - N/A Rain Rain
8:00 PM 53 °F 52 °F 94% 29.93 in - West 4.6 mph - -   Unknown Precipitation
8:00 PM 55.4 °F 53.6 °F 94% 29.92 in 4.3 mi West 4.6 mph - N/A Rain Rain
8:30 PM 55.4 °F 53.6 °F 94% 29.92 in 4.3 mi West 3.5 mph - N/A Rain Rain
9:00 PM 53 °F 52 °F 94% 29.92 in - Calm Calm - -   Unknown Precipitation
9:00 PM 55.4 °F 53.6 °F 94% 29.92 in 3.7 mi Calm Calm - N/A Rain Rain
9:30 PM 55.4 °F 53.6 °F 94% 29.89 in 4.3 mi Variable 1.2 mph - N/A Rain Light Rain
9:42 PM 55.4 °F 53.6 °F 94% 29.89 in 2.5 mi Variable 2.3 mph - N/A Rain Light Rain
10:00 PM 53 °F 52 °F 93% 29.91 in 3 mi SW 6.9 mph - - Rain Light Rain
10:00 PM 55.4 °F 53.6 °F 94% 29.89 in 2.5 mi SW 5.8 mph - N/A Rain Light Rain
10:30 PM 53.6 °F 53.6 °F 100% 29.89 in 2.5 mi SW 3.5 mph - N/A   Mostly Cloudy
11:00 PM 52 °F 51 °F 95% 29.88 in - SSW 6.9 mph - -   Unknown Precipitation
11:00 PM 53.6 °F 53.6 °F 100% 29.86 in 3.7 mi SSW 5.8 mph - N/A   Mostly Cloudy
11:30 PM 53.6 °F 53.6 °F 100% 29.86 in 4.3 mi SW 6.9 mph - N/A   Mostly Cloudy